Weather History for Middletown, OH

Change the Weather History Date:

Friday, February 15, 2013

  Actual Average (KDAY) Record (KDAY)
Temperature  
Mean Temperature 31 °F 31 °F  
Max Temperature 39 °F 39 °F 69 °F (1954)
Min Temperature 23 °F 23 °F -5 °F (2007)
Degree Days  
Heating Degree Days 34 34  
Month to date heating degree days 533  
Since 1 July heating degree days 3856  
Cooling Degree Days 0 0  
Month to date cooling degree days 0  
Year to date cooling degree days 0  
Moisture  
Dew Point 29 °F    
Average Humidity 93    
Maximum Humidity 100    
Minimum Humidity 69    
Precipitation  
Precipitation 0.00 in 0.08 in 1.45 in (1990)
Month to date precipitation 1.21  
Year to date precipitation 3.92  
Snow  
Snow 0.00 in 0.20 in 4.30 in (2003)
Month to date snowfall 3.3  
Since 1 July snowfall 16.7  
Snow Depth -    
Sea Level Pressure  
Sea Level Pressure 30.08 in    
Wind  
Wind Speed 3 mph (West)    
Max Wind Speed 16 mph    
Max Gust Speed 28 mph    
Visibility 8 miles    
Events Snow    
T = Trace of Precipitation, MM = Missing Value Source: NWS Daily Summary

Daily Weather History Graph

Daily Weather History Graph

Search for Another Location

Airport:

Trip Planner

Search our weather history database for the weather conditions in past years. The results will help you decide how hot, cold, wet, or windy it might be!

Date:

Astronomy

Feb. 15, 2013 Rise Set
Actual Time 7:29 AM EST 6:14 PM EST
Civil Twilight 7:01 AM EST 6:42 PM EST
Nautical Twilight 6:30 AM EST 7:13 PM EST
Astronomical Twilight 5:59 AM EST 7:44 PM EST
Moon 10:06 AM EST (2/15) No Moon Set
Length of Visible Light 11h 40m
Length of Day
10h 45m
Waxing Crescent, 30% of the Moon is Illuminated
Feb 15
Waxing Crescent
Feb 17
First Quarter
Feb 25
Full
Mar 4
Last Quarter
Mar 11
New

Hourly Weather History & Observations

Time (EST) Temp. Windchill Dew Point Humidity Pressure Visibility Wind Dir Wind Speed Gust Speed Precip Events Conditions
12:15 AM 33.3 °F - 31.8 °F 94% 30.01 in 10.0 mi Calm Calm - N/A   Clear
12:35 AM 31.3 °F 26.6 °F 30.6 °F 97% 30.01 in 10.0 mi WSW 4.6 mph - N/A   Clear
12:55 AM 28.6 °F 23.5 °F 28.4 °F 99% 30.01 in 10.0 mi SW 4.6 mph - N/A   Clear
1:15 AM 27.9 °F 24.0 °F 27.7 °F 99% 30.01 in 10.0 mi WSW 3.5 mph - N/A   Clear
1:35 AM 29.7 °F - 29.7 °F 100% 30.00 in 10.0 mi Calm Calm - N/A   Clear
1:55 AM 27.9 °F - 27.9 °F 100% 30.00 in 10.0 mi Calm Calm - N/A   Clear
2:15 AM 28.4 °F - 28.4 °F 100% 30.00 in 10.0 mi Calm Calm - N/A   Clear
2:35 AM 25.0 °F - 25.0 °F 100% 30.01 in 5.0 mi Calm Calm - N/A   Clear
2:55 AM 27.9 °F - 27.9 °F 100% 30.01 in 5.0 mi Calm Calm - N/A   Clear
3:15 AM 27.9 °F - 27.9 °F 100% 30.02 in 5.0 mi Calm Calm - N/A   Clear
3:35 AM 27.9 °F - 27.9 °F 100% 30.02 in 7.0 mi Calm Calm - N/A   Clear
3:55 AM 27.9 °F - 27.9 °F 100% 30.01 in 5.0 mi Calm Calm - N/A   Clear
4:15 AM 27.9 °F - 27.9 °F 100% 30.01 in 5.0 mi Calm Calm - N/A   Scattered Clouds
4:35 AM 27.9 °F - 27.9 °F 100% 30.02 in 3.0 mi Calm Calm - N/A   Scattered Clouds
4:55 AM 27.9 °F - 27.9 °F 100% 30.03 in 2.5 mi Calm Calm - N/A   Mostly Cloudy
5:35 AM 27.9 °F - 27.9 °F 100% 30.04 in 7.0 mi Calm Calm - N/A   Overcast
5:55 AM 27.9 °F - 27.9 °F 100% 30.03 in 7.0 mi Calm Calm - N/A   Mostly Cloudy
6:15 AM 27.9 °F - 27.9 °F 100% 30.04 in 7.0 mi Calm Calm - N/A   Mostly Cloudy
6:35 AM 27.9 °F - 27.9 °F 100% 30.05 in 5.0 mi Calm Calm - N/A   Mostly Cloudy
6:55 AM 27.9 °F - 27.9 °F 100% 30.05 in 7.0 mi Calm Calm - N/A   Overcast
7:15 AM 27.9 °F - 27.9 °F 100% 30.05 in 7.0 mi Calm Calm - N/A   Overcast
7:35 AM 29.1 °F - 29.1 °F 100% 30.05 in 7.0 mi Calm Calm - N/A   Overcast
7:55 AM 29.1 °F 25.4 °F 29.1 °F 100% 30.06 in 5.0 mi South 3.5 mph - N/A   Overcast
8:15 AM 30.2 °F - 30.2 °F 100% 30.07 in 7.0 mi Calm Calm - N/A   Overcast
8:35 AM 32.5 °F 27.1 °F 32.5 °F 100% 30.08 in 7.0 mi WSW 5.8 mph - N/A   Overcast
8:55 AM 32.5 °F 29.3 °F 32.4 °F 99% 30.08 in 7.0 mi SW 3.5 mph - N/A   Overcast
9:15 AM 32.5 °F 27.1 °F 32.0 °F 98% 30.09 in 10.0 mi SW 5.8 mph - N/A   Overcast
9:35 AM 34.2 °F 28.2 °F 32.5 °F 94% 30.08 in 10.0 mi SSW 6.9 mph - N/A   Overcast
9:55 AM 35.1 °F 30.1 °F 33.1 °F 92% 30.08 in 10.0 mi WSW 5.8 mph - N/A   Overcast
10:15 AM 35.1 °F 30.1 °F 32.5 °F 91% 30.08 in 10.0 mi SW 5.8 mph - N/A   Overcast
10:35 AM 37.6 °F 33.1 °F 33.3 °F 84% 30.08 in 10.0 mi WSW 5.8 mph - N/A   Mostly Cloudy
10:55 AM 37.6 °F 31.0 °F 32.0 °F 80% 30.08 in 10.0 mi West 9.2 mph - N/A   Overcast
11:15 AM 38.7 °F 32.9 °F 32.4 °F 78% 30.07 in 10.0 mi SW 8.1 mph - N/A   Mostly Cloudy
11:35 AM 38.8 °F 32.6 °F 32.5 °F 78% 30.07 in 10.0 mi WSW 9.2 mph - N/A   Overcast
11:55 AM 37.9 °F 30.5 °F 32.0 °F 79% 30.08 in 10.0 mi WSW 11.5 mph - N/A   Overcast
12:15 PM 38.8 °F 31.2 °F 32.0 °F 76% 30.07 in 10.0 mi West 12.7 mph 17.3 mph N/A   Overcast
12:55 PM 37.8 °F 31.3 °F 32.2 °F 80% 30.07 in 7.0 mi NW 9.2 mph - N/A Snow Light Snow
1:15 PM 37.6 °F 31.0 °F 34.0 °F 87% 30.07 in 10.0 mi West 9.2 mph - N/A   Overcast
1:35 PM 37.6 °F 31.6 °F 33.8 °F 86% 30.07 in 10.0 mi West 8.1 mph - N/A   Overcast
1:55 PM 37.9 °F 32.7 °F 33.3 °F 83% 30.06 in 10.0 mi West 6.9 mph - N/A   Overcast
2:15 PM 38.8 °F 32.6 °F 30.9 °F 73% 30.06 in 10.0 mi WNW 9.2 mph - N/A   Overcast
2:35 PM 38.8 °F 30.4 °F 29.8 °F 70% 30.05 in 10.0 mi West 15.0 mph - N/A   Overcast
2:55 PM 37.6 °F 31.0 °F 29.8 °F 74% 30.06 in 10.0 mi West 9.2 mph - N/A   Overcast
3:15 PM 39.2 °F 33.0 °F 29.7 °F 69% 30.06 in 10.0 mi West 9.2 mph 19.6 mph N/A   Mostly Cloudy
3:35 PM 34.7 °F 24.7 °F 32.4 °F 91% 30.08 in 1.0 mi NW 16.1 mph 27.6 mph N/A Snow Light Snow
3:55 PM 34.5 °F 27.9 °F 33.6 °F 97% 30.09 in 5.0 mi NW 8.1 mph - N/A Snow Light Snow
4:15 PM 35.1 °F 30.1 °F 33.3 °F 93% 30.08 in 10.0 mi WNW 5.8 mph - N/A   Mostly Cloudy
4:35 PM 35.1 °F 30.1 °F 32.0 °F 89% 30.08 in 10.0 mi WNW 5.8 mph - N/A   Overcast
4:55 PM 35.1 °F 27.4 °F 30.0 °F 82% 30.09 in 10.0 mi WNW 10.4 mph - N/A   Mostly Cloudy
5:15 PM 32.5 °F 24.2 °F 30.6 °F 92% 30.10 in 10.0 mi WNW 10.4 mph - N/A   Overcast
5:35 PM 32.5 °F 21.9 °F 31.5 °F 96% 30.12 in 7.0 mi NW 16.1 mph 21.9 mph N/A Snow Light Snow
5:55 PM 32.5 °F 22.3 °F 31.5 °F 96% 30.13 in 5.0 mi NNW 15.0 mph 23.0 mph N/A Snow Light Snow
6:15 PM 32.5 °F 23.7 °F 31.3 °F 95% 30.13 in 10.0 mi North 11.5 mph 17.3 mph N/A   Overcast
6:35 PM 30.2 °F 23.4 °F 29.1 °F 96% 30.15 in 10.0 mi NNW 6.9 mph - N/A   Mostly Cloudy
6:55 PM 30.2 °F 25.4 °F 29.3 °F 96% 30.15 in 10.0 mi North 4.6 mph - N/A   Scattered Clouds
7:15 PM 30.2 °F 25.4 °F 29.1 °F 96% 30.15 in 10.0 mi NNW 4.6 mph - N/A   Mostly Cloudy
7:35 PM 31.8 °F 27.3 °F 30.2 °F 94% 30.16 in 10.0 mi NNW 4.6 mph - N/A   Overcast
7:55 PM 30.2 °F - 28.6 °F 94% 30.16 in 10.0 mi Calm Calm - N/A   Scattered Clouds
8:15 PM 28.9 °F - 27.5 °F 94% 30.16 in 10.0 mi Calm Calm - N/A   Clear
8:35 PM 28.0 °F - 26.8 °F 95% 30.16 in 10.0 mi Calm Calm - N/A   Clear
8:55 PM 27.9 °F - 26.6 °F 95% 30.16 in 10.0 mi Calm Calm - N/A   Clear
9:15 PM 27.9 °F - 27.0 °F 96% 30.17 in 10.0 mi Calm Calm - N/A   Clear
9:35 PM 27.9 °F - 27.9 °F 100% 30.17 in 10.0 mi Calm Calm - N/A   Clear
9:55 PM 25.7 °F - 25.7 °F 100% 30.17 in 10.0 mi Calm Calm - N/A   Clear
10:15 PM 25.3 °F 21.1 °F 25.3 °F 100% 30.17 in 10.0 mi WNW 3.5 mph - N/A   Clear
10:35 PM 25.3 °F - 25.3 °F 100% 30.17 in 10.0 mi Calm Calm - N/A   Clear
10:55 PM 24.1 °F - 23.9 °F 99% 30.17 in 10.0 mi Calm Calm - N/A   Clear
11:15 PM 23.4 °F 18.9 °F 22.6 °F 97% 30.17 in 10.0 mi NW 3.5 mph - N/A   Clear
11:35 PM 25.3 °F 19.7 °F 22.5 °F 89% 30.17 in 10.0 mi North 4.6 mph - N/A   Clear
11:55 PM 25.3 °F - 21.7 °F 86% 30.17 in 10.0 mi Calm Calm - N/A   Clear